Retour au catalogue

KUIPER-00562

ActifCommunicationsLEO
NORAD 69270·PAYLOAD·🇺🇸 United States

Lancé May 29, 2026 depuis Vandenberg Space Force Base

Loading…

Prochains Passages (prochaines 24 heures)

TLE

FraisSource: CelesTrak SupGP

Époque: Sep 14, 2026, 22:51 UTC

1 69270C 26118D   26257.95247685 -.00172590  00000+0 -22610-1 0  2574
2 69270  51.9036 353.6616 0000354  91.6285 297.8676 14.80071035    18

Suivez KUIPER-00562 en temps réel avec AllMySat

Download on the App Store